Flugplatz Plettenberg-Hüinghausen (EDKP)

Hier findest Du alle Informationen zum Flugplatz Plettenberg-Hüinghausen (EDKP).

Informationen für Piloten zum Flugplatz Plettenberg-Hüinghausen

Hier findest Du alle relevanten Informationen, die Du als Pilot benötigst, um Plettenberg-Hüinghausen anzufliegen.

Flugplatz: Plettenberg-Hüinghausen ICAO-Code: EDKP
Frequenz Turm: 122,925 Mhz GAFOR Gebiet: 36
Frequenz Ground: 122,925 Mhz Mogas: nein
Platzrunde: N/S 2000 ft Landegebühr: -
Platzhöhe: 980 ft Sunrise: 03:29 Uhr UTC
Pisten: 11/29 - 430 m x 30 m, GRAS Sunset: 19:40 Uhr UTC

Mitglieder, die in Plettenberg-Hüinghausen fliegen

Flugwetter am Flugplatz Plettenberg-Hüinghausen

Die METAR Information stammen aus EDLW (38.34 km entfernt).

METAR Code:
2024/06/27 10:20
EDLW 271020Z VRB05KT CAVOK 28/17 Q1008

Flugschulen am Flugplatz Plettenberg-Hüinghausen

Am Flugplatz Plettenberg-Hüinghausen gibt es eine Flugschule.

Benachbarte Flugplätze und Flugschulen

Es gibt 21 weitere Flugplätze in einem Umkreis von 50 km um den Flugplatz Plettenberg-Hüinghausen.

Jetzt anmelden

Passwort vergessen

Umfrage Archiv

Wie häufig haltet Ihr die Halbkreisflugregel ein?

Eher häufig!
36.4 %
Immer!
30.2 %
Hin und wieder!
17.1 %
Nie!
9.5 %
Eher selten!
6.9 %
Stimmen: 275 | Diskussion
Anzeige: Roland Aircraft
Statistik Alle Mitglieder

Aktuell sind 32 Besucher online, davon 1 Mitglied und 31 Gäste.


Mitglieder online:
Maik 

Anzeige: EasyVFR